Wetbulb
70.97 74.49 76.92 77.18 77.09 77.20 77.16 77.03 76.89 76.64 76.75 77.61 77.91 77.66 77.82 77.93 78.43 78.58 78.60 78.67 78.57 78.28 77.79 77.59 78.22 77.44 76.73 76.46 76.13 76.45 75.84 76.69 77.25 76.61 76.10 75.73 76.11 76.63 76.72 75.84 75.59 74.08 75.87
73.07 74.80 77.28 77.30 77.02 76.71 76.43 76.22 76.05 76.03 76.15 76.50 77.57 77.32 77.55 77.82 77.75 78.11 78.35 78.50 77.85 78.02 77.69 77.58 77.30 77.29 76.44 76.76 76.55 76.15 76.24 76.85 77.49 76.35 75.50 75.12 74.81 75.35 76.03 75.82 74.93 73.72 75.59
73.65 74.79 75.62 77.61 76.63 76.34 76.38 75.95 75.86 75.53 76.04 75.92 76.55 77.10 77.23 77.32 77.77 77.80 77.24 77.21 77.47 78.07 77.27 77.35 77.31 76.77 76.50 76.66 76.53 76.16 75.74 76.17 76.92 75.11 74.78 72.86 73.03 75.60 75.78 75.78 75.53 74.25 74.86
73.85 74.01 75.17 77.53 77.26 76.56 76.49 76.51 76.88 76.62 76.75 76.56 76.76 76.86 77.09 76.88 77.70 77.36 77.33 76.94 77.29 78.08 77.37 77.23 77.23 77.07 76.86 76.36 76.08 75.64 75.50 76.03 76.12 76.13 72.39 72.28 72.29 75.57 75.43 75.53 75.32 74.81 75.27
71.32 73.04 75.01 77.69 77.83 77.44 77.42 77.07 76.77 77.23 77.06 76.69 76.40 76.47 77.05 76.95 77.00 77.13 77.32 77.12 76.98 77.56 77.76 77.16 76.53 76.36 75.67 75.25 75.70 76.82 77.53 77.25 76.14 74.45 71.88 71.29 71.39 74.94 75.61 75.34 75.30 75.29 74.29
71.82 73.43 76.80 77.20 77.08 77.22 77.18 76.97 77.14 76.94 76.77 76.70 76.93 76.97 77.06 76.84 77.35 76.98 77.12 77.22 76.75 76.45 76.82 77.08 76.75 76.00 76.11 76.22 76.30 76.47 76.72 75.86 73.46 71.44 71.01 72.62 71.46 75.40 74.88 74.60 75.70 75.39 74.87
72.54 73.89 75.53 77.84 77.90 77.18 76.97 76.93 76.89 76.90 76.76 76.57 77.39 77.05 77.15 76.85 77.02 77.04 77.05 77.03 77.14 76.81 77.03 76.83 76.50 76.11 76.27 76.40 75.91 76.07 76.28 74.97 69.32 69.96 71.33 72.40 73.27 75.59 75.36 75.18 75.34 74.12 74.45
72.83 73.86 74.85 76.96 77.32 77.32 76.86 76.66 76.68 76.65 76.65 76.76 76.96 76.76 76.99 77.04 77.22 77.22 76.75 77.03 77.06 76.14 77.39 76.52 76.36 75.88 75.77 75.96 75.72 75.91 76.67 76.18 73.26 72.66 72.38 72.87 75.10 74.96 74.99 75.51 75.14 73.79 74.03
73.59 73.54 74.36 74.87 76.20 77.22 76.95 76.66 76.69 76.57 76.74 76.58 76.57 76.54 77.03 77.12 77.11 77.08 76.95 76.92 77.06 77.23 77.03 76.16 75.80 75.80 75.63 75.41 75.34 75.50 77.31 76.00 71.47 71.85 72.33 72.47 75.02 75.03 74.97 75.34 74.56 74.06 73.91
72.60 73.34 73.64 74.30 74.56 74.14 74.32 76.64 76.88 76.83 76.43 76.53 76.51 76.25 77.41 77.08 76.97 76.75 77.30 78.12 77.26 76.98 76.97 76.11 75.36 74.84 74.37 74.23 75.01 76.06 76.41 76.14 72.02 72.58 72.76 73.61 75.51 73.76 73.70 73.90 74.25 73.78 73.25
71.74 72.61 73.08 73.30 73.08 73.07 73.63 75.00 76.01 76.78 76.28 76.31 76.15 76.30 76.21 72.65 73.12 74.85 76.81 77.88 76.95 76.70 76.34 76.41 75.69 75.05 74.76 74.73 75.31 75.20 74.20 72.04 71.68 72.30 73.06 75.11 75.65 75.81 74.32 73.98 73.64 72.72 72.40
70.44 71.84 72.44 73.04 72.86 73.12 74.47 73.24 72.88 73.57 73.01 73.07 72.96 73.09 72.28 71.94 72.08 74.37 75.78 77.47 77.09 76.48 75.92 76.48 77.00 76.03 76.16 72.74 72.58 76.11 72.93 72.08 72.26 72.52 72.27 74.79 76.03 74.54 74.37 74.68 73.81 73.14 72.72
71.04 72.14 71.98 72.21 72.37 71.41 72.75 72.96 71.73 72.55 73.03 73.22 71.70 72.33 72.49 71.81 72.79 73.16 73.30 73.81 73.31 74.01 72.93 73.41 73.94 72.86 72.43 72.75 72.72 72.65 72.20 71.35 71.42 72.19 73.81 75.58 75.82 73.65 74.15 74.00 74.68 73.48 72.86
69.85 70.97 72.28 72.48 72.31 72.43 72.81 72.24 71.46 71.85 72.45 70.94 73.36 71.36 70.84 70.85 71.48 71.74 73.19 72.61 70.85 71.13 70.08 71.86 72.34 73.41 73.91 73.98 73.59 69.26 70.78 71.44 71.09 71.97 74.04 76.08 76.08 74.08 73.70 73.67 73.42 73.17 73.08
70.98 71.10 71.03 70.99 70.99 72.00 73.14 71.72 71.24 72.00 70.63 71.49 70.99 71.48 72.39 71.53 71.48 70.37 70.65 72.25 71.59 70.31 70.58 68.09 69.66 71.24 70.01 71.60 67.79 67.76 69.49 69.55 70.66 72.08 71.80 75.65 76.48 76.03 74.03 73.57 73.77 74.02 73.56
70.49 71.02 69.97 69.88 71.52 73.09 73.39 72.04 72.25 70.50 69.47 70.70 70.79 72.20 73.47 72.35 71.89 71.52 71.20 71.80 70.51 71.89 70.84 67.76 69.50 71.76 69.77 69.92 69.94 68.41 69.34 70.06 69.72 70.41 71.31 72.78 76.28 76.29 75.35 74.62 74.24 73.64 73.21
70.43 71.53 70.83 71.10 72.94 73.23 71.21 72.05 71.66 72.44 71.96 71.47 72.61 72.07 72.45 72.22 70.32 70.71 68.27 69.71 71.07 72.84 71.38 71.48 71.20 73.04 70.48 71.42 69.47 69.50 69.82 69.88 69.95 69.97 70.90 71.89 73.74 75.92 75.52 75.60 75.92 75.03 73.98
70.77 70.00 69.60 73.47 72.11 71.64 71.81 71.05 70.88 72.51 71.69 71.11 72.61 73.07 74.44 72.64 72.02 70.94 70.19 70.87 71.84 70.11 72.00 69.89 70.23 69.25 68.82 69.61 68.32 68.73 70.04 69.69 69.54 70.67 71.48 71.68 72.45 72.92 75.62 76.41 76.23 75.90 74.81
71.40 70.21 69.20 71.19 70.64 72.38 72.85 72.12 71.02 70.48 70.40 72.52 72.27 72.97 72.93 73.59 73.59 73.15 71.79 70.98 73.17 71.01 71.34 71.14 69.91 70.49 69.32 68.65 69.00 69.95 69.53 68.83 69.65 72.06 70.74 71.80 71.41 71.84 71.63 74.56 76.26 76.05 75.68
70.95 70.70 71.48 71.65 70.63 70.77 72.59 72.06 71.32 71.03 71.99 73.45 73.17 73.93 74.71 74.25 73.96 72.50 73.90 71.46 71.90 71.29 71.16 69.47 69.65 69.31 70.15 67.67 68.29 68.81 68.71 69.61 69.76 69.52 69.82 70.75 71.07 71.86 71.83 71.72 73.36 74.11 75.92
70.24 70.26 70.89 71.96 72.42 71.58 72.16 69.28 70.30 68.84 70.63 72.88 73.80 74.16 72.90 72.62 74.80 73.84 73.29 70.77 71.49 71.26 69.46 72.37 71.33 71.09 70.82 70.92 69.25 67.64 67.94 66.39 66.65 69.48 69.80 69.99 69.79 71.71 72.04 72.23 72.29 72.15 72.71
69.50 69.62 72.15 72.17 71.83 71.60 71.46 72.05 71.63 71.29 71.38 72.27 74.10 74.28 73.79 74.05 73.97 74.30 72.99 72.25 71.67 70.97 72.16 70.65 68.54 69.80 69.39 69.08 67.14 65.71 62.91 65.50 67.70 67.35 68.39 69.68 68.83 70.09 71.03 71.35 71.86 72.42 71.48
69.85 70.63 71.68 71.33 71.58 71.80 71.95 72.79 74.19 73.40 72.68 72.15 73.24 73.03 74.75 75.20 74.73 73.91 73.46 73.27 70.40 70.90 69.51 70.46 72.00 68.91 67.23 69.69 69.51 66.31 63.84 61.98 65.98 66.74 65.90 66.86 65.94 68.53 69.32 69.83 71.34 71.12 71.40
70.10 71.84 72.54 71.78 70.77 70.84 73.14 70.59 71.02 69.50 69.48 70.12 70.79 72.77 73.03 75.27 75.21 74.74 74.01 73.66 73.67 70.56 69.04 70.28 73.49 71.10 68.01 67.33 68.03 69.91 68.76 66.24 64.06 62.83 66.00 65.29 66.84 68.28 67.81 68.55 70.10 71.08 71.67
70.66 71.48 73.06 72.08 71.19 70.70 72.55 72.49 71.85 70.80 69.47 70.14 72.53 71.77 73.67 73.86 75.51 74.41 74.06 73.25 72.54 72.12 71.27 71.70 72.10 71.71 71.15 71.27 71.05 69.60 68.99 68.88 69.62 65.17 62.89 62.68 66.15 67.10 67.48 68.70 70.18 70.39 70.97
70.49 71.33 72.86 72.05 71.50 71.30 72.91 72.18 71.84 70.99 69.40 69.66 69.83 72.19 71.17 72.44 72.87 73.04 74.97 73.64 73.40 70.97 69.03 69.32 72.31 72.10 72.42 71.84 72.71 70.29 69.19 65.77 64.64 67.04 65.15 65.38 63.15 66.89 67.50 69.56 67.55 70.50 71.41
MSLP
1016.64 1016.58 1016.72 1016.76 1016.84 1016.94 1017.15 1017.13 1017.15 1017.24 1017.34 1017.30 1017.51 1017.62 1017.71 1017.74 1017.70 1017.76 1017.87 1017.97 1018.03 1018.13 1018.23 1018.25 1018.32 1018.37 1018.42 1018.38 1018.39 1018.56 1018.70 1018.73 1018.89 1019.04 1019.24 1019.32 1019.32 1019.22 1019.42 1019.48 1019.50 1019.66 1019.65
1016.22 1016.63 1016.77 1016.87 1016.99 1017.09 1017.23 1017.31 1017.35 1017.35 1017.49 1017.67 1017.73 1017.90 1017.99 1017.97 1017.97 1017.97 1018.07 1018.20 1018.32 1018.29 1018.37 1018.48 1018.55 1018.55 1018.52 1018.56 1018.66 1018.82 1018.95 1019.11 1019.21 1019.33 1019.49 1019.60 1019.71 1019.75 1019.70 1019.71 1019.88 1019.92 1020.06
1016.35 1016.75 1016.88 1016.93 1017.14 1017.31 1017.44 1017.51 1017.52 1017.57 1017.63 1017.79 1017.93 1018.00 1018.08 1018.10 1018.14 1018.23 1018.32 1018.43 1018.46 1018.47 1018.53 1018.63 1018.74 1018.77 1018.74 1018.87 1019.04 1019.19 1019.35 1019.41 1019.37 1019.55 1019.82 1019.95 1020.04 1020.04 1020.00 1020.06 1020.13 1020.28 1020.40
1016.28 1016.75 1017.03 1017.17 1017.37 1017.49 1017.64 1017.65 1017.59 1017.63 1017.71 1017.86 1018.03 1018.12 1018.21 1018.30 1018.33 1018.36 1018.47 1018.56 1018.71 1018.75 1018.81 1018.85 1018.90 1018.89 1018.96 1019.13 1019.33 1019.62 1019.64 1019.58 1019.68 1019.73 1019.94 1020.13 1020.14 1020.30 1020.44 1020.46 1020.48 1020.58 1020.73
1016.22 1016.82 1017.13 1017.26 1017.46 1017.56 1017.65 1017.70 1017.74 1017.76 1017.87 1018.08 1018.26 1018.34 1018.39 1018.40 1018.49 1018.59 1018.60 1018.83 1019.02 1019.07 1019.02 1018.99 1019.06 1019.17 1019.31 1019.45 1019.72 1019.57 1019.39 1019.57 1019.96 1020.14 1020.37 1020.48 1020.55 1020.67 1020.69 1020.75 1020.80 1020.94 1021.03
1016.46 1017.02 1017.22 1017.33 1017.45 1017.61 1017.71 1017.84 1017.94 1017.98 1018.08 1018.26 1018.42 1018.50 1018.58 1018.64 1018.65 1018.77 1018.84 1019.02 1019.10 1019.28 1019.31 1019.30 1019.38 1019.49 1019.64 1019.85 1019.64 1019.66 1019.82 1019.85 1020.12 1020.46 1020.71 1020.77 1020.89 1020.90 1021.00 1021.04 1021.05 1021.19 1021.25
1016.68 1017.13 1017.37 1017.50 1017.56 1017.72 1017.87 1018.02 1018.16 1018.24 1018.35 1018.51 1018.61 1018.68 1018.77 1018.86 1018.91 1018.92 1019.06 1019.29 1019.29 1019.38 1019.45 1019.51 1019.55 1019.64 1019.80 1019.99 1019.86 1019.94 1020.12 1020.15 1020.42 1020.75 1021.06 1021.22 1021.17 1021.10 1021.23 1021.29 1021.35 1021.47 1021.52
1016.37 1017.02 1017.33 1017.64 1017.77 1017.90 1018.05 1018.23 1018.40 1018.57 1018.71 1018.83 1018.90 1018.94 1019.04 1019.15 1019.17 1019.16 1019.48 1019.57 1019.56 1019.68 1019.58 1019.67 1019.72 1019.73 1019.90 1020.18 1020.12 1020.13 1020.17 1020.41 1020.73 1020.99 1021.26 1021.37 1021.39 1021.42 1021.48 1021.60 1021.63 1021.69 1021.75
1016.29 1016.85 1017.42 1017.65 1017.83 1018.01 1018.16 1018.30 1018.49 1018.74 1018.95 1019.10 1019.20 1019.29 1019.37 1019.45 1019.40 1019.44 1019.62 1019.63 1019.62 1019.62 1019.79 1019.89 1019.84 1019.85 1020.04 1020.16 1020.30 1020.43 1020.38 1020.76 1021.16 1021.19 1021.33 1021.64 1021.68 1021.63 1021.72 1021.81 1021.88 1021.93 1021.95
1016.53 1016.87 1017.37 1017.67 1017.93 1018.26 1018.41 1018.49 1018.64 1018.83 1019.11 1019.41 1019.49 1019.63 1019.63 1019.54 1019.54 1019.60 1019.59 1019.62 1019.90 1020.22 1020.30 1020.28 1020.19 1020.32 1020.17 1020.30 1020.44 1020.10 1020.61 1020.87 1021.16 1021.31 1021.56 1021.85 1021.86 1021.86 1021.91 1022.04 1022.09 1022.12 1022.12
1016.72 1016.92 1017.40 1017.62 1018.07 1018.19 1018.44 1018.49 1018.75 1018.92 1019.33 1019.39 1019.54 1019.78 1019.82 1019.80 1019.87 1019.67 1019.69 1019.90 1020.63 1020.79 1020.71 1020.54 1020.31 1020.33 1020.33 1020.31 1020.57 1020.45 1020.57 1021.04 1021.37 1021.62 1021.68 1021.86 1021.94 1021.91 1022.03 1022.18 1022.22 1022.22 1022.22
1016.55 1016.88 1017.22 1017.58 1017.88 1018.26 1018.28 1018.52 1018.86 1019.13 1019.38 1019.49 1019.76 1019.89 1020.03 1019.97 1019.78 1020.01 1020.24 1020.69 1021.14 1020.87 1020.76 1021.02 1020.67 1020.42 1020.33 1020.53 1020.68 1020.73 1020.91 1021.15 1021.42 1021.69 1021.78 1021.88 1021.95 1022.03 1022.14 1022.22 1022.24 1022.22 1022.20
1016.18 1016.71 1017.26 1017.33 1017.80 1018.15 1018.29 1018.51 1018.95 1019.21 1019.27 1019.28 1019.54 1019.97 1020.06 1020.16 1020.21 1020.46 1020.58 1020.87 1021.26 1021.10 1021.07 1021.30 1021.01 1020.80 1020.84 1020.42 1020.67 1020.95 1021.22 1021.23 1021.58 1021.68 1021.81 1021.88 1021.98 1022.04 1022.09 1022.14 1022.15 1022.17 1022.16
1016.42 1016.97 1017.05 1017.23 1017.75 1018.09 1018.34 1018.53 1018.76 1019.09 1019.06 1019.11 1019.49 1019.88 1020.02 1020.30 1020.45 1020.81 1020.97 1021.03 1021.73 1021.68 1021.47 1021.16 1020.81 1020.77 1020.81 1020.43 1020.29 1020.17 1020.88 1021.40 1021.83 1021.81 1021.88 1021.89 1021.89 1021.96 1022.00 1022.01 1022.09 1022.14 1022.14
1016.23 1016.84 1017.14 1017.11 1017.77 1017.85 1018.08 1018.47 1018.76 1018.70 1018.82 1018.89 1019.28 1019.67 1019.94 1020.42 1020.82 1021.43 1020.93 1020.85 1021.39 1021.53 1021.12 1020.80 1020.70 1020.67 1020.66 1020.06 1019.91 1020.16 1020.94 1021.37 1021.60 1021.84 1021.98 1021.87 1021.86 1021.92 1021.90 1021.94 1022.02 1022.04 1022.10
1016.01 1016.79 1017.09 1017.23 1017.62 1017.85 1018.01 1018.38 1018.44 1018.82 1018.76 1018.89 1019.21 1019.55 1020.12 1020.27 1020.68 1021.28 1021.04 1021.03 1021.09 1021.43 1021.29 1021.11 1020.81 1020.64 1020.60 1020.37 1020.29 1020.19 1020.61 1020.95 1021.26 1021.66 1021.88 1021.89 1021.85 1021.85 1021.83 1021.79 1021.90 1021.97 1022.03
1015.82 1016.53 1017.06 1017.30 1017.25 1017.40 1017.87 1018.51 1018.78 1018.68 1018.99 1019.12 1019.16 1019.50 1020.13 1020.20 1020.35 1020.70 1021.22 1021.46 1021.41 1021.10 1020.88 1021.05 1021.14 1020.88 1020.45 1020.18 1020.48 1020.45 1020.49 1020.67 1020.88 1021.24 1021.64 1021.81 1021.81 1021.72 1021.72 1021.74 1021.78 1021.84 1021.83
1015.60 1016.41 1016.86 1017.08 1017.49 1017.63 1017.84 1018.35 1018.67 1018.95 1019.37 1019.36 1019.19 1019.59 1019.78 1020.14 1020.44 1020.75 1020.99 1021.08 1021.03 1021.47 1020.93 1021.36 1021.34 1021.27 1021.06 1020.88 1020.70 1020.62 1020.60 1020.49 1020.44 1021.06 1021.35 1021.47 1021.58 1021.55 1021.55 1021.58 1021.63 1021.66 1021.65
1015.59 1016.27 1016.87 1017.15 1017.55 1017.90 1017.77 1018.15 1018.61 1018.77 1019.44 1019.53 1019.38 1019.67 1019.82 1020.08 1020.69 1020.43 1020.99 1021.36 1020.89 1021.15 1021.02 1020.99 1021.40 1021.13 1021.15 1021.02 1020.93 1020.97 1020.84 1020.65 1020.37 1020.48 1020.92 1021.10 1021.29 1021.24 1021.25 1021.28 1021.43 1021.46 1021.40
1015.77 1016.17 1016.76 1017.38 1017.67 1018.00 1018.27 1018.85 1018.86 1019.19 1019.44 1019.40 1019.62 1019.67 1019.82 1020.03 1020.21 1020.53 1020.79 1021.05 1020.88 1020.96 1020.96 1021.14 1021.23 1021.23 1021.01 1020.99 1020.78 1020.64 1020.68 1020.35 1020.40 1020.51 1020.48 1020.51 1020.87 1020.92 1020.92 1021.04 1021.27 1021.24 1021.13
1015.89 1016.42 1016.92 1017.43 1017.73 1018.21 1018.56 1019.23 1019.29 1019.55 1019.44 1019.72 1019.68 1019.65 1019.65 1020.13 1020.15 1020.51 1020.61 1020.99 1020.98 1021.15 1021.23 1021.29 1021.34 1021.33 1021.20 1020.83 1021.16 1020.89 1020.63 1020.55 1020.51 1020.59 1020.50 1020.26 1020.51 1020.60 1020.58 1020.85 1020.89 1020.92 1020.82
1015.83 1016.55 1017.11 1017.43 1017.79 1018.12 1018.45 1018.81 1018.95 1019.13 1019.40 1019.39 1019.45 1019.67 1019.71 1020.03 1020.22 1020.36 1020.52 1020.66 1020.71 1021.13 1021.26 1021.30 1021.20 1021.54 1021.49 1021.20 1021.27 1021.55 1021.57 1020.98 1020.42 1020.38 1020.35 1020.38 1020.37 1020.19 1020.44 1020.39 1020.39 1020.46 1020.42
1015.66 1016.32 1017.19 1017.52 1017.77 1018.04 1018.51 1018.80 1018.66 1018.78 1019.48 1019.92 1019.83 1019.81 1019.76 1019.97 1020.08 1020.40 1020.58 1020.85 1021.08 1021.16 1021.27 1021.30 1021.34 1021.44 1021.66 1021.14 1020.91 1021.14 1021.67 1021.69 1021.27 1020.72 1020.43 1020.25 1020.11 1020.29 1020.19 1020.11 1020.13 1020.05 1019.93
1015.31 1015.95 1016.74 1017.47 1017.79 1018.05 1018.56 1018.84 1019.04 1019.31 1019.66 1019.97 1020.03 1019.70 1019.57 1019.64 1019.83 1020.12 1020.40 1020.74 1020.92 1021.29 1021.44 1021.30 1021.03 1021.39 1021.39 1021.77 1021.39 1020.90 1020.92 1021.09 1021.55 1021.70 1021.03 1020.65 1020.23 1020.11 1020.33 1020.09 1019.94 1019.80 1019.59
1014.87 1015.58 1016.43 1017.18 1017.80 1018.05 1018.50 1018.79 1018.96 1019.51 1019.80 1019.98 1019.93 1020.17 1019.89 1019.60 1019.62 1019.93 1020.24 1020.60 1020.65 1021.06 1021.11 1021.25 1021.38 1021.19 1021.35 1021.82 1021.91 1021.65 1021.34 1021.20 1021.33 1021.60 1021.72 1021.22 1020.64 1020.07 1019.99 1019.75 1019.61 1019.56 1019.37
1014.87 1015.45 1016.32 1017.08 1017.88 1018.19 1018.48 1018.70 1018.95 1019.41 1019.86 1020.03 1020.11 1020.35 1020.11 1020.11 1020.13 1019.98 1020.07 1020.55 1020.76 1020.89 1021.10 1021.17 1021.26 1021.20 1021.28 1021.57 1021.87 1021.89 1021.84 1021.99 1022.05 1021.87 1021.78 1021.32 1021.12 1020.30 1019.85 1019.47 1019.32 1019.38 1019.35
Wind_Speed
2 7 12 12 13 12 12 12 12 12 12 13 13 13 14 14 14 15 14 14 15 15 16 16 17 18 18 18 19 19 19 19 19 20 20 20 17 15 18 18 17 14 18
13 9 13 14 13 12 11 11 11 12 12 12 12 13 12 13 15 14 14 14 15 16 16 16 16 17 16 17 18 17 17 16 18 20 19 19 19 19 19 17 18 15 18
14 11 11 13 13 12 11 11 12 12 12 12 12 12 13 13 13 14 14 15 14 15 16 16 16 16 15 15 15 15 13 13 15 20 19 8 10 18 18 16 18 16 16
15 10 9 13 13 12 11 12 12 12 13 11 12 12 13 12 13 14 15 14 14 13 16 15 16 15 13 13 12 10 8 9 7 12 10 8 11 16 15 14 15 16 14
15 11 10 14 14 15 13 13 13 12 12 12 11 12 13 13 13 13 13 13 13 14 14 15 14 14 12 10 10 11 12 11 19 16 10 8 5 13 15 15 15 14 15
15 10 13 15 15 15 14 13 13 13 13 12 12 12 13 13 13 12 12 14 13 14 13 14 14 13 12 10 8 12 13 18 18 11 9 10 6 15 14 14 14 13 14
15 11 10 14 13 15 14 13 13 13 12 12 12 12 14 13 13 11 12 14 13 14 12 12 13 10 9 10 7 10 9 17 10 10 8 7 5 13 14 13 14 13 14
17 13 11 15 14 14 14 13 13 12 12 12 12 12 13 13 12 11 12 13 15 13 13 12 11 9 8 8 6 8 5 16 12 10 8 5 9 12 13 13 12 13 12
17 14 10 9 13 15 14 13 13 12 12 11 12 12 13 13 13 12 11 12 12 12 11 10 9 8 6 5 6 5 13 17 7 6 9 4 9 11 12 11 13 11 10
15 14 12 10 8 7 7 13 12 13 12 11 11 12 13 14 13 12 7 9 11 10 10 8 5 3 2 2 5 4 13 15 8 8 6 4 8 11 10 10 10 9 8
13 14 12 11 8 7 6 8 11 12 11 11 11 12 9 4 6 7 7 8 11 8 5 6 5 4 3 3 2 6 5 4 5 4 4 10 7 11 10 9 8 7 6
13 13 10 10 11 10 8 6 6 6 5 5 5 5 3 3 5 6 7 7 11 10 5 3 5 5 6 3 3 6 2 5 4 4 3 10 8 9 8 7 7 6 5
16 12 12 10 8 7 7 4 3 3 3 3 6 5 3 3 3 3 1 3 4 15 2 4 4 1 5 5 1 3 3 6 4 4 7 10 9 8 8 6 7 4 4
9 11 14 8 7 8 5 3 4 3 4 3 5 5 4 3 3 4 1 3 3 2 5 5 4 3 7 9 8 5 10 6 3 3 5 10 9 9 8 7 6 4 3
16 13 10 8 6 5 7 4 4 4 4 5 5 6 5 2 3 5 3 3 2 2 2 3 2 1 4 3 4 8 9 7 6 3 2 11 8 10 9 7 6 5 4
17 14 8 8 6 7 6 8 6 3 5 5 4 4 6 6 5 5 2 3 2 3 0 4 3 3 2 2 4 4 7 8 7 6 4 5 10 9 9 8 7 6 5
14 16 10 9 6 5 7 6 4 4 3 4 4 6 7 6 5 5 2 3 4 4 5 1 4 4 3 1 3 4 3 6 8 7 6 4 5 10 11 9 8 7 7
16 14 10 11 7 6 5 7 3 4 5 3 5 4 5 6 6 4 3 1 0 1 1 3 3 1 0 2 2 2 3 3 5 8 6 5 5 5 8 11 10 9 9
16 12 9 10 7 7 7 5 3 6 4 2 4 4 5 5 8 3 4 4 2 3 3 2 3 3 2 1 3 3 3 4 5 6 7 9 8 6 4 9 11 10 10
9 9 14 9 7 7 6 4 2 4 2 2 4 4 4 3 4 3 3 4 2 2 1 0 2 1 1 0 2 2 3 5 4 5 5 6 8 8 6 6 5 5 11
8 10 9 12 7 4 2 5 3 2 3 1 3 6 4 3 2 4 1 4 4 3 2 2 1 2 3 2 3 4 3 2 4 4 4 5 6 8 6 5 4 4 4
10 8 7 9 8 5 3 2 3 3 2 3 4 5 5 4 4 4 2 1 3 3 2 1 2 2 2 2 3 2 3 5 5 1 4 5 7 5 5 6 6 7 5
14 10 9 8 8 6 5 2 1 3 4 2 3 3 4 6 6 5 6 3 1 1 1 1 1 3 1 3 1 4 2 2 2 2 1 4 3 2 4 5 6 6 7
15 12 13 8 8 7 4 3 4 4 5 1 1 4 4 7 6 6 7 5 4 2 3 2 2 1 3 3 4 4 0 3 2 3 3 3 2 3 5 4 5 6 6
17 14 12 11 8 6 5 3 4 5 3 1 3 5 4 2 6 6 7 6 2 2 3 3 4 4 2 1 2 3 3 3 2 2 2 4 3 4 4 5 6 5 5
15 14 12 14 8 7 5 4 4 6 6 4 3 4 2 1 1 4 6 7 6 3 3 1 3 3 1 2 2 2 2 2 2 2 1 3 3 5 3 3 4 4 4
Wind_Direction
206 131 140 130 120 111 98 92 90 91 88 81 93 87 86 85 84 82 83 90 93 94 91 91 87 90 94 96 94 96 101 100 93 90 87 86 78 87 83 80 77 74 71
128 141 139 126 114 109 107 103 98 92 89 89 83 95 94 90 89 84 89 89 94 91 93 92 89 92 92 93 93 96 100 105 102 93 85 85 82 80 79 82 78 69 72
129 133 129 123 120 118 114 109 104 99 97 94 90 88 91 90 95 95 92 88 93 99 98 102 100 97 97 96 99 101 103 113 107 102 100 90 83 81 76 77 79 78 75
133 122 120 126 121 119 120 115 103 99 93 104 95 96 93 93 91 90 93 102 99 103 104 101 103 100 98 100 99 90 103 128 119 110 90 81 83 83 82 82 86 83 75
125 121 131 127 123 121 118 111 104 101 97 101 110 105 98 97 97 99 106 105 105 102 106 103 103 103 106 92 81 73 79 103 82 85 82 78 71 86 84 86 84 81 79
118 123 130 130 124 119 114 109 109 105 105 104 105 108 109 106 107 108 107 106 108 102 102 103 108 109 109 96 67 69 93 97 92 88 78 73 67 84 88 86 84 81 85
121 130 126 124 123 118 113 110 109 110 109 109 106 105 108 107 107 114 107 105 108 119 106 110 112 115 114 92 66 66 84 95 92 89 84 80 78 86 85 85 88 84 78
135 131 127 127 124 119 120 118 116 117 117 119 112 110 111 112 113 108 102 110 115 116 121 119 121 133 123 107 97 52 54 111 97 98 94 88 92 93 89 83 94 86 83
131 129 134 132 132 129 126 129 130 130 122 121 122 118 113 113 112 107 109 119 125 125 117 122 139 139 125 135 100 60 92 112 104 115 105 91 102 98 95 94 88 86 84
138 137 138 140 136 127 133 137 135 133 134 129 126 126 120 119 115 112 109 129 127 114 112 112 117 111 173 173 123 95 90 100 103 97 103 107 110 105 101 86 88 90 86
141 141 145 152 147 143 133 148 142 139 131 138 133 134 127 133 129 124 133 128 111 95 105 137 146 177 236 246 209 155 126 101 114 106 107 122 117 121 106 102 101 97 91
142 143 140 146 149 147 147 153 151 138 138 158 150 158 150 176 150 130 135 118 108 80 350 289 191 212 222 211 230 228 105 114 113 124 118 128 123 117 118 123 122 117 108
139 132 141 159 163 143 158 165 120 159 161 173 168 172 183 119 99 89 86 115 135 129 265 296 237 241 320 287 141 214 143 131 146 147 143 141 140 134 141 138 146 142 137
143 148 155 170 147 132 152 164 147 167 171 184 144 139 128 108 134 148 123 74 82 108 195 217 242 195 237 251 259 118 143 125 143 128 154 154 156 158 164 164 165 168 177
151 140 153 165 130 142 151 143 171 190 158 132 144 148 131 120 77 90 150 147 136 163 272 305 33 7 266 47 92 100 138 138 150 142 161 167 178 178 178 183 188 201 210
132 145 149 125 157 172 170 162 184 178 155 113 104 95 109 134 123 127 188 74 289 192 240 274 302 328 274 37 82 106 130 155 150 154 170 180 186 194 201 197 204 212 225
138 144 143 136 133 109 100 112 142 114 115 132 126 119 123 129 138 125 187 117 253 138 150 43 309 287 348 131 102 146 142 135 166 157 166 176 202 204 215 218 212 216 224
130 138 147 128 143 124 107 105 108 87 71 143 118 136 139 117 127 185 129 73 358 118 31 120 268 246 172 274 284 230 157 172 149 160 174 171 187 204 219 223 221 220 228
140 149 132 130 149 123 102 91 135 106 67 226 137 139 148 139 168 174 142 185 207 120 212 209 217 145 174 251 227 244 245 186 208 152 193 179 188 199 202 224 222 222 233
142 124 135 143 152 144 122 112 82 126 204 142 135 149 146 162 144 124 137 159 125 38 124 279 44 332 246 86 340 302 229 217 205 173 194 166 187 195 206 202 201 224 235
133 130 143 136 164 135 134 140 173 175 168 160 154 145 175 180 178 113 84 137 151 101 275 243 71 332 311 261 4 338 357 262 194 189 207 195 189 194 206 190 199 211 225
147 144 137 140 148 162 158 158 145 175 165 161 164 165 198 165 167 130 164 192 35 77 22 11 110 358 350 257 133 70 18 339 331 194 191 191 217 181 194 201 180 199 216
152 151 146 156 157 175 175 161 228 74 87 106 172 165 179 172 137 149 134 156 148 206 63 330 345 95 350 312 306 145 86 206 313 315 100 202 172 147 191 195 201 208 209
160 160 149 160 169 195 193 175 179 147 146 152 223 182 173 174 168 156 147 142 155 126 297 306 313 120 95 9 338 340 249 135 99 350 331 297 242 223 206 217 197 231 227
161 164 155 159 179 196 213 200 174 112 91 224 138 154 178 186 158 149 153 155 153 104 200 343 307 86 88 108 49 341 349 354 100 133 265 312 326 259 230 207 213 209 236
167 161 155 162 182 190 197 205 160 143 132 100 113 185 164 80 63 165 160 147 164 196 213 246 292 29 75 55 39 18 92 55 336 359 72 281 209 263 245 272 168 206 229